星链-35566(STARLINK-35566)

导读 | 豆包AI

STARLINK-35566是美国SpaceX公司于2025年10月19日发射的星链低轨通信卫星,属于全球覆盖的星链卫星互联网星座组网成员。星链项目旨在为全球偏远、网络欠发达地区提供高速、低延迟的宽带互联网接入,该星依托低轨道部署,单星设计寿命5-7年,退役后可主动离轨再入大气层销毁,避免产生太空垃圾,助力构建全球无缝宽带通信网络。

基本信息
目录编号:
66061
目录名称:
STARLINK-35566
国际标识:
2025-235D
轨道中心:
EARTH
卫星名称:
星链-35566
卫星全名:
星链-35566(STARLINK-35566)
卫星状态:
在轨 (已飞行218 天)
发射日期:
2025-10-19 UTC
国别 :
美国 (US)
星等 :
--
轨道信息
数据来源 国际轨道数据 AOE轨道数据
星历时间 2026-05-25T01:04:17+0800
17小时前
查看轨道信息
2026-05-23T06:00:00+0800
2天前
查看轨道信息
半长轴 6853.393km 6853.389km
偏心率 0.0001348 0.0001327
轨道倾角 53.158° 53.159°
近地点辐角 70.359° 61.990°
升交点赤经 251.951° 260.287°
平近点角 289.756° 126.457°
近地点 474.332km 474.342km
远地点 476.18km 476.162km
周期 94.106分钟 94.106分钟
每日圈数 15.301865 15.301877
详细信息
固有亮度:
5
最大亮度:
2.5
卫星平台:
Starlink V1.0
覆盖范围:
全球
运营商:
太空探索技术公司
运营商所在国:
美国
制造商(研发单位):
太空探索技术公司
制造商所在国:
美国
使用方式:
暂无
卫星简介
Starlink 计划是 SpaceX 推出的全球卫星互联网项目,通过发射低轨道卫星,为全球尤其是偏远地区提供高速、低延迟的互联网服务。自 2019 年起,Starlink 已部署数千颗卫星,旨在缩小全球数字鸿沟,推动互联网普及。该项目还为军事、航空等行业提供通信支持,带来广泛经济效益。
2D轨道图
3D轨道图
轨道高度分析图
轨道倾角分析图
轨道综合分析图
查看轨道综合分析图